Regional Weather Roundup
Issued by NWS

Home | Current Version | Previous Version | Graphics & Text | Print | Product List | Glossary On
Versions: 1 2 3 4 5 6 7 8 9 10 11 12 13 14 15 16 17 18 19 20 21 22 23 24 25 26 27
000
ASUS45 KTFX 240110
RWRMT
MONTANA REGIONAL WEATHER ROUNDUP
NATIONAL WEATHER SERVICE GREAT FALLS MT
700 PM MDT THU MAR 23 2017

NOTE: "FAIR" INDICATES FEW OR NO CLOUDS BELOW 12000 FEET WITH NO
SIGNIFICANT WEATHER AND/OR OBSTRUCTIONS TO VISIBILITY.

MTZ001>007-043-240200-
WEST OF THE DIVIDE

CITY           SKY/WX    TMP DP  RH WIND       PRES   REMARKS
KALISPELL      PTCLDY    48  23  37 W9        29.99R
MISSOULA       CLEAR     49  24  37 NW12      30.00R
BUTTE          CLEAR     47  19  33 NW12      29.94R
MULLAN PASS    PTCLDY    28  23  81 VRB3      29.98S
ANACONDA         N/A     45  19  36 NE12      29.96R
DEER LODGE       N/A     45  21  39 NW10      29.98R
EUREKA           N/A     48  21  34 S8        30.01R
HAMILTON         N/A     50  19  29 W9        29.97S
PLAINS           N/A     48  26  42 W9        30.03R
RONAN            N/A     49  23  36 W5        30.05S
$$

MTZ008-052>055-240200-
SOUTHWEST MONTANA

CITY           SKY/WX    TMP DP  RH WIND       PRES   REMARKS
BOZEMAN        CLEAR     52  25  35 N3        29.93R
DILLON         CLEAR     49  19  30 NE6       29.91R
W YELLOWSTONE  CLOUDY    45  16  31 NW7       29.92R
ENNIS          CLEAR     48  18  29 N5        29.97R
THREE FORKS      N/A     53  53 100 NE5       29.93R
TWIN BRIDGES     N/A     53  19  26 N7        29.92R
$$

MTZ009-010-012-014-046-048-049-054-240200-
EAST SLOPES AND CENTRAL MONTANA

CITY           SKY/WX    TMP DP  RH WIND       PRES   REMARKS
CUT BANK       CLEAR     41  22  46 W14       29.91R
GREAT FALLS    CLEAR     50  18  28 W14       29.91R
MALMSTROM AFB  CLEAR     52  18  26 W13       29.91R
HELENA         CLEAR     51  21  30 NW13      29.94R
AUGUSTA          N/A     44  18  35 W18       29.92R
BOWMANS CRNR     N/A     45  18  33 W15       29.91R
CHOTEAU          N/A     45  19  36 W10       29.94R
CONRAD           N/A     48  25  41 W18       29.95R
FAIRFIELD        N/A     48  17  29 W10       29.92R
POWER            N/A     49  18  29 W14       29.91R
RAYNESFORD       N/A     51  20  28 W12       29.91R
$$

MTZ011-013-016-021-045-047-050-051-240200-
NORTH CENTRAL MONTANA

CITY           SKY/WX    TMP DP  RH WIND       PRES   REMARKS
HAVRE          CLOUDY    57  25  29 NW6       29.86R
LEWISTOWN      CLEAR     51  17  26 NW7       29.90R
N BAR RANCH      N/A     50  19  29 NW9       29.92R
CHINOOK          N/A     55  25  30 NW5       29.86R
DENTON           N/A     52  21  30 N12       29.86R
FORT BENTON      N/A     55  21  26 MISG      29.90R
GEYSER           N/A     50  19  28 NW14      29.90R
GRASS RANGE      N/A     51  20  29 NW9       29.87R
STANFORD         N/A     48  20  32 NW15      29.90R
WINIFRED         N/A     50  21  32 N10       29.89R
$$

MTZ017>020-022>027-061-062-240200-
NORTHEAST MONTANA

CITY           SKY/WX    TMP DP  RH WIND       PRES   REMARKS
GLASGOW        CLEAR     55  29  36 NW7       29.84R
JORDAN           N/A     55  28  35 NW7       29.86R
SIDNEY         MOCLDY    52  39  61 NE7       29.82R
WOLF POINT     CLOUDY    59  34  39 NW9       29.81R
MALTA          CLEAR     55  28  35 W8        29.85R
PLENTYWOOD       N/A     46  37  71 NE8       29.84R
POPLAR           N/A     54  39  58 NE8       29.82R
SCOBEY           N/A     53  31  43 N1        29.83R
$$

MTZ028>42-056>058-240200-
SOUTHCENTRAL AND SOUTHEAST MONTANA

CITY           SKY/WX    TMP DP  RH WIND       PRES   REMARKS
BAKER          CLOUDY    48  38  68 SW9       29.85R
BILLINGS       CLOUDY    51  35  54 S6        29.90R
LIVINGSTON     CLOUDY    52  22  30 NW10      29.91R
MILES CITY     CLOUDY    54  41  61 W9        29.85R
BIG TIMBER     MOCLDY    52  21  30 W17G24    29.92R
EKALAKA          N/A     45  38  76 W7        29.88R
FORSYTH          N/A     55  36  47 SW5       29.86R
HARLOWTON        N/A     51  21  30 N15       29.90R
LAUREL           N/A     52  32  46 CALM      29.90R
$$

REGIONAL REPORTS...DAKOTAS

CITY           SKY/WX    TMP DP  RH WIND       PRES   REMARKS
WILLISTON      CLOUDY    51  37  58 NE8       29.84R
MINOT          PTCLDY    36  31  82 N10       29.83R WCI  28
DICKINSON      CLOUDY    45  38  76 S9        29.81R
BEACH            N/A    N/A N/A N/A MISG        N/A
TIOGA            N/A     43  39  87 N8        29.85R
WATFORD CITY     N/A     48  39  71 N6        29.82R
BISMARCK       LGT RAIN  40  38  93 S8        29.83R FOG
GRAND FORKS    CLOUDY    36  35  96 S8        29.82R WCI  30
FARGO          CLOUDY    37  35  92 SE6       29.82R FOG
BUFFALO SD       N/A     43  42  97 SW3       29.81R
RAPID CITY     CLOUDY    45  39  79 N21G29    29.84R
$$

REGIONAL REPORTS...WYOMING/IDAHO/WASHINGTON

CITY           SKY/WX    TMP DP  RH WIND       PRES   REMARKS
GILLETTE       CLOUDY    41  32  70 N10       29.90R
SHERIDAN       CLOUDY    44  37  76 SW7       29.93R
BUFFALO WY     CLOUDY    42  34  73 NW18G26   29.92R
CODY           CLOUDY    43  32  65 SW10      29.94R
YELLOWSTONE LA   N/A     38  20  48 VRB5      29.95R
IDAHO FALLS    MOCLDY    53  27  36 NW5       29.91R
SALMON         CLEAR     54  19  26 N8        29.91S
BOISE          SUNNY     54  25  32 NW8       30.01R
SPOKANE        MOSUNNY   47  26  44 S6        30.02F
$$

REGIONAL REPORTS...ALBERTA

CITY           SKY/WX    TMP DP  RH WIND       PRES   REMARKS
EDMONTON       CLEAR     36  27  69 CALM      29.90R
CALGARY        CLOUDY    39  28  65 N12       29.88R WCI  32
LETHBRIDGE     MOCLDY    48  21  34 W22G28    29.86R
MEDICINE HAT   MOCLDY    54  25  32 NW8       29.82R
WATERTON GATE    N/A     43  16  33 SW13G22     N/A
CARDSTON         N/A     46  16  29 W13G18      N/A
MILK RIVER       N/A     46  21  36 W16         N/A
ONEFOUR          N/A     52  21  30 W13         N/A
$$

REGIONAL REPORTS...SASKATCHEWAN

CITY           SKY/WX    TMP DP  RH WIND       PRES   REMARKS
SWIFT CURRENT  CLEAR     45  32  61 NW8       29.83R
REGINA         PTCLDY    43  28  56 N5        29.86R
SASKATOON      PTCLDY    34  25  69 NE9       29.93R WCI  26
CYPRESS HILLS    N/A     45  18  33 N5          N/A
VAL MARIE        N/A     52  28  40 W7          N/A
ROCKGLEN         N/A     45  32  61 NE2         N/A
ASSINIBOIA       N/A     28  21  74 SE5         N/A
$$




USA.gov is the U.S. government's official web portal to all federal, state and local government web resources and services.